Regional Weather Roundup
Issued by NWS

Home | Current Version | Previous Version | Text Only | Print | Product List | Glossary On
Versions: 1 2 3 4 5 6 7 8 9 10 11 12 13 14 15 16 17 18 19 20 21 22 23 24 25 26 27 28 29 30 31 32 33 34 35 36 37 38 39 40 41 42 43 44 45 46 47 48 49 50
000
ASUS45 KABQ 241710
RWRNM
NEW MEXICO REGIONAL WEATHER ROUNDUP
NATIONAL WEATHER SERVICE ALBUQUERQUE NM
1000 AM MST TUE JAN 24 2017

NOTE: "FAIR" MEANS FEW OR NO CLOUDS BELOW 12,000 FEET AGL WITH NO
       SIGNIFICANT WEATHER OR OBSTRUCTIONS TO VISION.

      THIS PRODUCT IS RELEASED AS TWO VERSIONS.  ONE VERSION NEAR
      THE TOP OF THE HOUR CONTAINING PRELIMINARY DATA FROM ALBUQUERQUE
      AND OTHER STATIONS.  A FINAL VERSION WITH ADDITIONAL DATA IS
      ISSUED ABOUT 10 MINUTES AFTER THE HOUR.

NMZ501-503-504-510>518-241800-
NORTHWEST PLATEAU/NORTHCENTRAL MOUNTAINS

CITY           SKY/WX    TMP DP  RH WIND       PRES   REMARKS
FARMINGTON     FLURRIES  27  24  89 W9        29.70R WCI  18
LOS ALAMOS     CLOUDY    29  18  61 SW17G23   29.66S WCI  18
SANTA FE       PTSUNNY   32  22  66 W21G32    29.69R WCI  20
TAOS           CLOUDY    25  16  68 W25       29.63R VSB 3/4 WCI   9
ANGEL FIRE     SNOW      21  17  85 SW24G35   29.59R VSB 1/4 WCI   5

$$
NMZ402-403-502-505>509-241800-
WESTCENTRAL MOUNTAINS/SOUTHWEST MOUNTAINS

CITY           SKY/WX    TMP DP  RH WIND       PRES   REMARKS
GALLUP         FLURRIES  26  20  77 SW17      29.78R WCI  13
GRANTS         FAIR      29  17  62 W22G31    29.77R WCI  15
SILVER CITY    FAIR      37  26  66 W23G29    29.87R WCI  25

$$
NMZ407-409-411-412-241800-
SOUTHERN DESERTS

CITY           SKY/WX    TMP DP  RH WIND       PRES   REMARKS
DEMING         CLOUDY    42  25  50 W21       29.89R
LAS CRUCES     FAIR      44  26  48 W24G36    29.87R
HOLLOMAN AFB   FAIR      48  28  45 SW18      29.88R
ALAMOGORDO     FAIR      48  25  40 W12       29.87R
T OR C         FAIR      44  17  33 W20G25    29.81R

$$
NMZ519>523-241800-
CENTRAL VALLEYS/CENTRAL HIGHLANDS

CITY           SKY/WX    TMP DP  RH WIND       PRES   REMARKS
ALBUQUERQUE    FAIR      37  17  44 W28G36    29.75R WCI  25
DOUBLE EAGLE   MOSUNNY   36  19  51 W24       29.75R WCI  24
MORIARTY ARPT  FAIR      35  20  53 W22G28    29.74R WCI  24
CLINES CORNERS MIX PCPN  28  17  63 W33G48    29.68R WCI  11
BELEN          FAIR      41  15  35 W25G32    29.79R
SOCORRO        FAIR      44  11  25 W17G23    29.80R

$$
NMZ524>526-539-540-241800-
SOUTHCENTRAL MOUNTAINS

CITY           SKY/WX    TMP DP  RH WIND       PRES   REMARKS
RUIDOSO        PTSUNNY   37  19  48 W20       29.76R WCI  27

$$
NMZ527>531-241800-
NORTHEAST HIGHLANDS/NORTHEAST PLAINS

CITY           SKY/WX    TMP DP  RH WIND       PRES   REMARKS
LAS VEGAS      LGT SNOW  29  22  75 SW22G32   29.63R WCI  15
RATON          FAIR      38  21  50 SW21      29.53F WCI  28
CLAYTON        FAIR      50  22  33 W25G38    29.53R

$$
NMZ532>537-241800-
EASTCENTRAL PLAINS

CITY           SKY/WX    TMP DP  RH WIND       PRES   REMARKS
TUCUMCARI      FAIR      50  28  42 W26G33    29.63R
CANNON AFB     FAIR      48  33  55 NW21G29   29.67R
CLOVIS AIRPORT FAIR      48  32  53 W23G32    29.67R

$$
NMZ028-029-538-241800-
SOUTHEAST PLAINS

CITY           SKY/WX    TMP DP  RH WIND       PRES   REMARKS
ROSWELL        FAIR      56  23  27 W30G39    29.72R
ARTESIA        FAIR      57  28  33 W36G41    29.73S
CARLSBAD       FAIR      58  30  34 W33G44    29.72R
HOBBS          SUNNY     57  32  38 SW29G37   29.75R


$$



USA.gov is the U.S. government's official web portal to all federal, state and local government web resources and services.